ONEWEB-0707, 61612

Orbit data source: Space-Track

ONEWEB-0707, 61612 is a payload satellite owned by Eut. One Web (UK) in LEO that was launched on Sun, 20 Oct 2024 UTC via an FALCON 9 launch vehicle from the Air Force Western Test Range (AFWTR). Payload-class satellites include a variety of spacecraft equipped with specific instruments for various scientific and technological missions. These include communications satellites like Starlink; space stations such as the ISS; scientific satellites like the Hubble; Earth observation satellites from companies like Planet Labs, Umbra, and HawkEye 360; GPS; miniature CubeSats for education and research; and military/defense satellites.

Loading next visibility...
Identifier
61612, 2024-188U
Orbit
LEO
Country
Flag of UKUK
Related business
Manufacturer
One Web
Mission
Operational Commercial Communications
Bus & Motor
ARROW, Unknown motor
Mass
148 kg wet, ~140 kg dry
Launch date (UTC)
2024-10-20 (1 year ago)
Launch vehicle
FALCON 9
Launch site
Air Force Western Test Range (AFWTR)
Object type
Payload
Rocket body
Debris
Shape & HBR
Trap Box + 2 Pan, 6.7 m
Radar Cross Section
3.464 m², Large (>1 m²)

Expand to show TLE details & history
Last TLE update: 21 hours ago

TLE from 21 hours ago
0 ONEWEB-0707
1 61612U 24188U   25348.66275221 -.00000429  00000-0 -12662-2 0  9998
2 61612  87.8821  73.0330 0001044  99.8649 260.2597 13.10375153 59152
Epoch: 2025-12-14T15:54Z
TLE epoch observation values (Epoch: 2025-12-14T15:54:21.790Z)
Latitude
0.00003°
Longitude
110.86976°
Altitude
1,224.73 km
Speed
7.242 km/s
True Right ascension
04h 52m 07s
True Declination
0° 00' 00"
Sunlit
Object was in full shadow at epoch
Visualization orbit readout
Latitude
Unknown
Longitude
Unknown
Altitude
Unknown
Speed
Unknown
Apparent Right ascension
Unknown
Apparent Declination
Unknown
Sunlit
N/A
Visualization observer readout
Local Sidereal Time
11:01:58
Azimuth
Unknown
Elevation
Unknown
Doppler factor
Unknown
Orbital elements
Apogee altitude
1,219.621 km
Perigee altitude
1,218.035 km
Semi-major axis
7,596.965 km
Eccentricity
0.0001
Inclination
87.8821°
RAAN
73.033°
Arg. of periapsis
99.8649°
True anomaly
260.24791°
Mean anomaly
260.2597°
Eccentric anomaly
260.2538°
Mean motion
3.2778 °/min
Orbital period
109.83 mins
BSTAR
-0.0012662
Loading maneuver chart data...
Computing Atmospheric mass density...
Loading historical data...
Loading historical data...
Loading historical data...
Loading historical data...
Loading historical data...
Loading historical data...
Loading historical data...

Documentation

Showing up to 5 results
|